Location: Bakov nad Jizerou
(50.4784°N, 14.9394°E)
Time: 20:02:32
(UTC+00:00)

SL-8 R/B - Pass Details

Date: 23 October 2021
Orbit: 656 x 667 km, 48.4° (Epoch: 03 December)

Event Time Altitude Azimuth Distance (km) Brightness Sun altitude
Rises 18:59:22 0° 272° (W) 2,988 8.1 -30.1°
Reaches altitude 10° 19:01:43 10° 269° (W) 2,077 7.0 -30.5°
Enters shadow 19:04:34 35° 259° (WSW) 1,061 5.1 -30.9°
